Regional Weather Roundup
Issued by NWS State College, PA

Home | Current Version | Previous Version | Graphics & Text | Print | Product List | Glossary Off
Versions: 1 2 3 4 5 6 7 8 9 10 11 12 13 14 15 16 17 18 19 20 21 22 23 24 25 26 27 28 29 30 31 32 33 34 35 36 37 38 39 40 41 42 43 44 45 46 47 48 49 50

000
ASUS41 KCTP 120110
RWRCTP

REGIONAL WEATHER ROUNDUP
NATIONAL WEATHER SERVICE STATE COLLEGE PA
900 PM EDT FRI JUL 11 2014

Note: "fair" indicates few or no clouds below 12,000 feet with no
significant weather and/or obstructions to visibility.

* = STATION THAT DOES NOT REPORT PRECIPITATION /E.G. RAIN...SNOW...ETC/
    THUNDER OR FOG.

PAZ002>004-007>009-013>016-020>023-029>032-120200-
WESTERN PENNSYLVANIA

CITY           SKY/WX    TMP DP  RH WIND       PRES   REMARKS
ERIE           CLEAR     72  52  49 CALM      30.18S
MEADVILLE      CLEAR     69  55  60 NE8       30.21R
FRANKLIN*      PTCLDY    72  57  60 CALM      30.21S
NEW CASTLE       N/A     69  63  81 CALM      30.19R
BEAVER COUNTY  PTCLDY    77  61  57 CALM      30.19R
BUTLER*        PTCLDY    73  63  68 CALM      30.20S
PITTSBURGH INT PTCLDY    79  60  52 W3        30.18R
PITTSBURGH     CLEAR     78  57  48 SW3       30.18R
INDIANA*       CLEAR     73  64  73 E3        30.23S
LATROBE        CLEAR     77  61  57 CALM      30.19S
WASHINGTON CO* CLEAR     68  63  83 CALM      30.19S
$$

PAZ004>006-010>012-017>019-024>028-033>037-041-042-045-046-049>053-120200-
CENTRAL PENNSYLVANIA

CITY           SKY/WX    TMP DP  RH WIND       PRES   REMARKS
BRADFORD       MOCLDY    68  59  73 CALM      30.23R
DUBOIS         PTCLDY    75  60  59 SE5       30.21R
CLEARFIELD     CLEAR     73  60  63 CALM      30.22R
JOHNSTOWN      CLEAR     69  60  73 SE3       30.24S
ALTOONA        PTCLDY    72  64  76 SE3       30.22S
STATE COLLEGE  CLEAR     73  61  64 CALM      30.21R
WILLIAMSPORT   CLEAR     77  58  51 CALM      30.17R
SELINSGROVE    CLEAR     70  67  90 CALM      30.18R
FT INDIANTOWN  CLEAR     71  67  88 CALM      30.19R
CAPITAL CITY   CLEAR     77  62  59 CALM      30.17R
HARRISBURG     PTCLDY    78  67  68 VRB3      30.16S
YORK           CLEAR     73  65  75 CALM      30.18R
$$

PAZ038>040-043-044-047-048-054-055-060>062-067>071-120200-
EASTERN PENNSYLVANIA

CITY           SKY/WX    TMP DP  RH WIND       PRES   REMARKS
SCRANTON       CLEAR     72  59  63 E5        30.20S
MOUNT POCONO   CLEAR     65  60  84 CALM      30.25S
ALLENTOWN      CLEAR     75  61  61 N3        30.18S
QUAKERTOWN*    CLEAR     77  64  65 CALM      30.19F
READING        CLEAR     76  64  66 CALM      30.17S
LANCASTER      CLEAR     75  65  70 E3        30.18R
COATESVILLE    CLEAR     75  63  64 CALM      30.20S
POTTSTOWN      CLEAR     74  64  71 CALM      30.19S
BLUE BELL      MOCLDY    79  64  61 S6        30.18R
DOYLESTOWN     CLOUDY    77  62  59 SE3       30.19R
WILLOW GROVE   NOT AVBL
NORTH PHILA    MOCLDY    80  58  46 VRB7      30.20R
PHILADELPHIA   CLOUDY    78  61  55 SE8       30.19R
$$


USA.gov is the U.S. government's official web portal to all federal, state and local government web resources and services.